Miscellaneous Local Product
Issued by NWS Hastings, NE

Home | Current Version | Previous Version | Graphics & Text | Print | Product List | Glossary On
Versions: 1 2 3 4 5 6 7 8 9 10 11 12 13 14 15 16 17 18 19 20 21 22 23 24 25 26 27 28 29 30 31 32 33 34 35 36 37 38 39 40 41 42 43 44 45 46 47 48 49 50
000
AXUS43 KGID 020502
MISGRI

GID CWA HOURLY WEATHER ROUNDUP
NATIONAL WEATHER SERVICE HASTINGS NE
1200 AM CDT SUN AUG 02 2015

NOTE: "FAIR" INDICATES FEW OR NO CLOUDS BELOW 12,000 FEET WITH NO
SIGNIFICANT WEATHER AND/OR OBSTRUCTIONS TO VISIBILITY.

...SOUTH CENTRAL NEBRASKA...

CITY           SKY/WX    TMP DP  RH WIND       PRES   REMARKS
GRAND ISLAND   PTCLDY    73  68  84 S8        29.93F
HASTINGS       PTCLDY    74  69  85 S7        29.94F
KEARNEY        MOCLDY    70  64  83 S5        29.94F
ORD            MOCLDY    67  64  90 CALM      29.93S
YORK           PTCLDY    72  68  88 S6        29.94R
AURORA         PTCLDY    73  69  88 S6        29.93F
LEXINGTON      PTCLDY    73  65  77 S6        29.95F
HOLDREGE       MOCLDY    74  62  66 SW5       29.96F
HEBRON         MOCLDY    75  65  71 S6        29.93S

...NEBRASKA PANHANDLE...

CITY           SKY/WX    TMP DP  RH WIND       PRES   REMARKS
CHADRON        CLEAR     72  57  59 CALM      29.97S
ALLIANCE       PTCLDY    64  56  75 S6        30.02S
SCOTTSBLUFF    CLEAR     67  57  70 E6        30.03F
SIDNEY         PTCLDY    70  55  59 S14       30.06F

...WESTERN AND NORTH CENTRAL NEBRASKA...

CITY           SKY/WX    TMP DP  RH WIND       PRES   REMARKS
VALENTINE      NOT AVBL
AINSWORTH      CLEAR     68  61  78 SW7       29.95F
ONEILL         CLEAR     69  62  78 SW6       29.91S
BROKEN BOW     PTCLDY    67  63  87 N3        29.95F
IMPERIAL       MOCLDY    76  52  43 S9        29.98F
NORTH PLATTE   MOCLDY    67  62  84 CALM      29.97S
MCCOOK         CLOUDY    78  57  48 SW8       29.96F

...EASTERN NEBRASKA...

CITY           SKY/WX    TMP DP  RH WIND       PRES   REMARKS
NORFOLK        CLEAR     66  64  93 N3        29.91F
SO SIOUX CITY  CLEAR     68  63  84 E5        29.88F
TEKAMAH        CLEAR     69  68  96 S6        29.90S
COLUMBUS       CLEAR     64  57  77 CALM      29.92S
ALBION         CLEAR     65  63  91 CALM      29.93S
OMAHA EPPLEY   PTCLDY    77  72  84 S8        29.91S
MILLARD        CLEAR     75  72  89 SE3       29.91F
LINCOLN        PTCLDY    71  66  84 CALM      29.93S
NEBRASKA CITY  PTCLDY    75  72  91 SE7       29.93F
BEATRICE       MOCLDY    77  69  75 S6        29.93S
FALLS CITY     PTCLDY    72  65  78 S10       29.94F

...NORTHERN KANSAS...

CITY           SKY/WX    TMP DP  RH WIND       PRES   REMARKS
GOODLAND       CLOUDY    73  60  63 S9        30.04F
HILL CITY      CLOUDY    76  64  66 S8        29.97F
NORTON         CLEAR     75  54  46 S8        29.96S
PHILLIPSBURG   CLEAR     77  64  65 S5        29.95F
SMITH CENTER   CLEAR     73  63  68 S7        29.96R
HAYS           PTCLDY    73  61  64 S8        29.97F
RUSSELL        PTCLDY    73  66  78 S9        29.95F
CONCORDIA      PTCLDY    78  67  68 S13       29.94F
SALINA         CLEAR     76  69  79 S3        29.95F
TOPEKA         PTCLDY    77  68  73 SE5       29.96S



USA.gov is the U.S. government's official web portal to all federal, state and local government web resources and services.